Lancaster, OH

1:47 PM EDT on August 18, 2017 (GMT -0400)
Fairfield County

Weather History for KLHQ - October, 2012

Change the Weather History Date:

Monday, October 29, 2012

  Actual Average Record
Temperature  
Mean Temperature 38 °F -  
Max Temperature 39 °F 61 °F 78 °F (2016)
Min Temperature 37 °F 35 °F 19 °F (1965)
Degree Days  
Heating Degree Days 27    
Moisture  
Dew Point 35 °F    
Average Humidity 88    
Maximum Humidity 93    
Minimum Humidity 86    
Precipitation  
Precipitation 0.29 in - - ()
Sea Level Pressure  
Sea Level Pressure 29.82 in    
Wind  
Wind Speed 15 mph (NNW)    
Max Wind Speed 26 mph    
Max Gust Speed 34 mph    
Visibility 10 miles    
Events Rain    
Averages and records for this station are not official NWS values.
T = Trace of Precipitation, MM = Missing Value Source: NWS Daily Summary

Daily Weather History Graph

Daily Weather History Graph

Search for Another Location

Airport or City:

Trip Planner

Search our weather history database for the weather conditions in past years. The results will help you decide how hot, cold, wet, or windy it might be!

Date:

Astronomy

Oct. 29, 2012 Rise Set
Actual Time 7:56 AM EDT 6:31 PM EDT
Civil Twilight 7:28 AM EDT 6:59 PM EDT
Nautical Twilight 6:56 AM EDT 7:31 PM EDT
Astronomical Twilight 6:25 AM EDT 8:02 PM EDT
Moon 6:23 PM EDT (10/29) 7:45 AM EDT (10/29)
Length of Visible Light 11h 30m
Length of Day
10h 35m
Full, 100% of the Moon is Illuminated
Oct 29
Full
Oct 29
Full
Nov 6
Last Quarter
Nov 13
New
Nov 20
First Quarter

Hourly Weather History & Observations

Time (EDT) Temp. Windchill Dew Point Humidity Pressure Visibility Wind Dir Wind Speed Gust Speed Precip Events Conditions
12:15 AM 39.2 °F 30.2 °F 35.6 °F 87% 29.96 in 10.0 mi North 17.3 mph - 0.01 in Rain Light Rain
12:30 AM 37.4 °F 29.3 °F 35.6 °F 93% 29.97 in 9.0 mi NNW 12.7 mph 21.9 mph 0.02 in Rain Light Rain
12:53 AM 37.9 °F 31.5 °F 35.1 °F 89% 29.97 in 9.0 mi NNW 9.2 mph 19.6 mph 0.03 in Rain Light Rain
1:09 AM 37.4 °F 29.8 °F 35.6 °F 93% 29.96 in 9.0 mi North 11.5 mph - 0.01 in Rain Light Rain
1:26 AM 37.4 °F 29.3 °F 35.6 °F 93% 29.96 in 10.0 mi NNW 12.7 mph - 0.02 in Rain Light Rain
1:53 AM 37.9 °F 30.9 °F 35.1 °F 89% 29.96 in 8.0 mi NNW 10.4 mph - 0.03 in Rain Light Rain
2:53 AM 37.9 °F 30.9 °F 35.1 °F 89% 29.95 in 9.0 mi NNW 10.4 mph - 0.01 in Rain Light Rain
3:53 AM 39.0 °F 32.8 °F 35.1 °F 86% 29.93 in 10.0 mi NNW 9.2 mph 21.9 mph 0.04 in Rain Light Rain
4:53 AM 39.0 °F 31.0 °F 36.0 °F 89% 29.92 in 10.0 mi NNW 13.8 mph 20.7 mph 0.01 in Rain Light Rain
5:53 AM 39.0 °F 31.4 °F 35.1 °F 86% 29.92 in 10.0 mi NNW 12.7 mph 24.2 mph 0.02 in Rain Light Rain
6:53 AM 37.9 °F 29.6 °F 34.0 °F 86% 29.91 in 9.0 mi NNW 13.8 mph - 0.01 in Rain Light Rain
7:53 AM 37.0 °F 28.5 °F 34.0 °F 89% 29.92 in 8.0 mi NNW 13.8 mph 21.9 mph 0.02 in Rain Light Rain
8:26 AM 37.4 °F 28.9 °F 33.8 °F 87% 29.90 in 10.0 mi NNW 13.8 mph - 0.01 in   Overcast
8:37 AM 37.4 °F 29.8 °F 33.8 °F 87% 29.90 in 10.0 mi NNW 11.5 mph 23.0 mph 0.01 in   Overcast
8:53 AM 37.9 °F 28.9 °F 35.1 °F 89% 29.91 in 9.0 mi NNW 16.1 mph 21.9 mph 0.01 in Rain Light Rain
9:53 AM 37.9 °F 29.6 °F 35.1 °F 89% 29.89 in 10.0 mi NNW 13.8 mph 23.0 mph 0.00 in   Overcast
10:53 AM 39.0 °F 31.0 °F 35.1 °F 86% 29.89 in 10.0 mi North 13.8 mph 21.9 mph 0.00 in Rain Light Rain
11:53 AM 39.9 °F 32.5 °F 36.0 °F 86% 29.87 in 10.0 mi NNW 12.7 mph 19.6 mph 0.00 in   Overcast
12:53 PM 39.9 °F 32.1 °F 36.0 °F 86% 29.86 in 10.0 mi NNW 13.8 mph 25.3 mph 0.01 in Rain Light Rain
1:53 PM 39.9 °F 31.8 °F 37.0 °F 89% 29.83 in 9.0 mi NNW 15.0 mph 25.3 mph 0.01 in Rain Light Rain
2:53 PM 39.9 °F 32.1 °F 37.0 °F 89% 29.81 in 10.0 mi NNW 13.8 mph 23.0 mph 0.00 in Rain Light Rain
3:45 PM 39.2 °F 29.3 °F 35.6 °F 87% 29.77 in 10.0 mi North 20.7 mph 27.6 mph 0.00 in   Overcast
3:53 PM 39.9 °F 30.2 °F 36.0 °F 86% 29.78 in 10.0 mi NNW 20.7 mph 28.8 mph 0.00 in Rain Light Rain
4:53 PM 39.9 °F 30.2 °F 36.0 °F 86% 29.75 in 6.0 mi NNW 20.7 mph 28.8 mph 0.02 in Rain Light Rain
5:30 PM 39.2 °F 29.6 °F 35.6 °F 87% 29.73 in 8.0 mi NNW 19.6 mph 27.6 mph 0.01 in Rain Light Rain
5:42 PM 39.2 °F 29.3 °F 35.6 °F 87% 29.72 in 10.0 mi NNW 20.7 mph 29.9 mph 0.01 in Rain Light Rain
5:53 PM 39.0 °F 28.3 °F 35.1 °F 86% 29.74 in 10.0 mi NNW 24.2 mph 31.1 mph 0.02 in Rain Light Rain
6:14 PM 39.2 °F 29.3 °F 35.6 °F 87% 29.72 in 10.0 mi NNW 20.7 mph 32.2 mph 0.00 in Rain Light Rain
6:35 PM 39.2 °F 29.3 °F 35.6 °F 87% 29.71 in 10.0 mi NNW 20.7 mph 31.1 mph 0.00 in Rain Light Rain
6:53 PM 39.0 °F 29.0 °F 35.1 °F 86% 29.72 in 10.0 mi NNW 20.7 mph 32.2 mph 0.00 in Rain Light Rain
7:53 PM 37.9 °F 28.2 °F 34.0 °F 86% 29.69 in 10.0 mi NNW 18.4 mph 32.2 mph 0.01 in Rain Light Rain
8:53 PM 37.9 °F 27.9 °F 35.1 °F 89% 29.66 in 10.0 mi NNW 19.6 mph 27.6 mph 0.02 in Rain Light Rain
9:53 PM 37.9 °F 26.8 °F 34.0 °F 86% 29.63 in 10.0 mi NNW 24.2 mph 34.5 mph 0.01 in Rain Light Rain
10:53 PM 37.0 °F 25.1 °F 33.1 °F 86% 29.60 in 10.0 mi NNW 26.5 mph 34.5 mph 0.00 in   Overcast
11:49 PM 37.4 °F 26.6 °F 33.8 °F 87% 29.54 in 10.0 mi NNW 21.9 mph 31.1 mph 0.01 in   Overcast
11:53 PM 37.0 °F 26.2 °F 33.1 °F 86% 29.55 in 10.0 mi NW 21.9 mph 31.1 mph 0.01 in   Overcast